Location: Newark
(49.5647°N, 8.2922°E)
Time: 13:44:16
(UTC+00:00)

Transit 2A - Pass Details

Date: 26 February 2020
Orbit: 597 x 962 km, 66.7° (Epoch: 04 April)

Event Time Altitude Azimuth Distance (km) Brightness Sun altitude
Rises 11:39:41 0° 204° (SSW) 2,827 9.9 31.6°
Reaches altitude 10° 11:41:55 10° 200° (SSW) 1,927 9.4 31.6°
Maximum altitude 11:46:08 59° 121° (ESE) 699 6.6 31.6°
Drops below altitude 10° 11:50:32 10° 42° (NE) 2,012 7.9 31.6°
Sets 11:52:55 0° 39° (NE) 2,965 8.6 31.6°
